Weather History for Wainwright, AK

Change the Weather History Date:

Friday, September 27, 2013

  Actual Average (PABR) Record (PABR)
Temperature  
Mean Temperature 27 °F 28 °F  
Max Temperature 30 °F 32 °F 53 °F (1929)
Min Temperature 24 °F 24 °F 6 °F (1957)
Degree Days  
Heating Degree Days 38 37  
Month to date heating degree days 871  
Since 1 July heating degree days 2425  
Cooling Degree Days 0    
Month to date cooling degree days  
Year to date cooling degree days  
Moisture  
Dew Point 23 °F    
Average Humidity 85    
Maximum Humidity 89    
Minimum Humidity 81    
Precipitation  
Precipitation 0.00 in 0.02 in 0.34 in (2004)
Month to date precipitation 0.67  
Year to date precipitation 3.72  
Snow  
Snow 0.00 in 0.30 in 2.70 in (2004)
Month to date snowfall 3.8  
Since 1 July snowfall 4.9  
Since 1 September snowfall 3.8  
Snow Depth -    
Sea Level Pressure  
Sea Level Pressure 29.58 in    
Wind  
Wind Speed 7 mph (East)    
Max Wind Speed 9 mph    
Max Gust Speed -    
Visibility 10 miles    
Events      
T = Trace of Precipitation, MM = Missing Value Source: NWS Daily Summary

Daily Weather History Graph

Daily Weather History Graph

Search for Another Location

Airport:

Trip Planner

Search our weather history database for the weather conditions in past years. The results will help you decide how hot, cold, wet, or windy it might be!

Date:

Astronomy

Sep. 27, 2013 Rise Set
Actual Time 8:42 AM AKDT 8:17 PM AKDT
Civil Twilight 7:39 AM AKDT 9:19 PM AKDT
Nautical Twilight 6:21 AM AKDT 10:36 PM AKDT
Astronomical Twilight 4:41 AM AKDT 12:13 AM AKDT
Moon 11:14 PM AKDT (9/27) 7:36 PM AKDT (9/27)
Length of Visible Light 13h 40m
Length of Day
11h 34m
Last Quarter, 44% of the Moon is Illuminated
Sep 27
Last Quarter
Oct 4
New
Oct 11
First Quarter
Oct 18
Full
Oct 26
Last Quarter

Hourly Weather History & Observations

Time (AKDT) Temp. Windchill Dew Point Humidity Pressure Visibility Wind Dir Wind Speed Gust Speed Precip Events Conditions
12:53 AM 27.0 °F 18.0 °F 21.9 °F 81% 29.56 in 10.0 mi East 9.2 mph - N/A   Overcast
1:53 AM 27.0 °F 18.0 °F 21.9 °F 81% 29.56 in 10.0 mi East 9.2 mph - N/A   Overcast
2:53 AM 26.1 °F 17.6 °F 21.9 °F 84% 29.56 in 10.0 mi ENE 8.1 mph - N/A   Overcast
3:53 AM 26.1 °F 17.6 °F 21.9 °F 84% 29.56 in 10.0 mi East 8.1 mph - N/A   Overcast
4:53 AM 26.1 °F 18.4 °F 21.9 °F 84% 29.56 in 10.0 mi ENE 6.9 mph - N/A   Overcast
5:53 AM 25.0 °F 16.3 °F 21.0 °F 85% 29.56 in 10.0 mi ENE 8.1 mph - N/A   Overcast
6:53 AM 26.1 °F 18.4 °F 21.9 °F 84% 29.56 in 10.0 mi ENE 6.9 mph - N/A   Overcast
7:53 AM 26.1 °F 17.6 °F 21.9 °F 84% 29.56 in 10.0 mi ENE 8.1 mph - N/A   Overcast
8:53 AM 26.1 °F 16.8 °F 23.0 °F 88% 29.57 in 10.0 mi East 9.2 mph - N/A   Overcast
9:28 AM 26.6 °F 17.5 °F 23.0 °F 86% 29.56 in 10.0 mi ESE 9.2 mph - N/A   Overcast
9:53 AM 27.0 °F 18.0 °F 24.1 °F 89% 29.57 in 10.0 mi ESE 9.2 mph - N/A   Overcast
10:28 AM 28.4 °F 20.4 °F 24.8 °F 86% 29.57 in 10.0 mi ESE 8.1 mph - N/A   Overcast
10:53 AM 28.0 °F 19.3 °F 24.1 °F 85% 29.57 in 10.0 mi ESE 9.2 mph - N/A   Overcast
11:19 AM 28.4 °F 19.7 °F 24.8 °F 86% 29.57 in 10.0 mi East 9.2 mph - N/A   Overcast
11:53 AM 28.0 °F 20.8 °F 24.1 °F 85% 29.58 in 10.0 mi East 6.9 mph - N/A   Overcast
12:53 PM 28.9 °F 21.9 °F 25.0 °F 85% 29.58 in 10.0 mi East 6.9 mph - N/A   Overcast
1:53 PM 28.9 °F 22.8 °F 25.0 °F 85% 29.58 in 10.0 mi ESE 5.8 mph - N/A   Overcast
2:53 PM 30.0 °F 24.1 °F 26.1 °F 85% 29.59 in 10.0 mi East 5.8 mph - N/A   Overcast
3:53 PM 30.0 °F 26.5 °F 25.0 °F 82% 29.60 in 10.0 mi ESE 3.5 mph - N/A   Overcast
4:53 PM 30.0 °F - 25.0 °F 82% 29.60 in 10.0 mi Calm Calm - N/A   Overcast
5:53 PM 30.0 °F - 25.0 °F 82% 29.60 in 10.0 mi Calm Calm - N/A   Overcast
6:53 PM 27.0 °F - 24.1 °F 89% 29.60 in 10.0 mi Calm Calm - N/A   Overcast
7:53 PM 26.1 °F - 23.0 °F 88% 29.61 in 9.0 mi Calm Calm - N/A   Mostly Cloudy
8:20 PM 24.8 °F - 21.2 °F 86% 29.60 in 2.5 mi Calm Calm - N/A   Mostly Cloudy
8:53 PM 27.0 °F 23.0 °F 24.1 °F 89% 29.62 in 10.0 mi SW 3.5 mph - N/A   Overcast
9:53 PM 25.0 °F 19.3 °F 21.9 °F 88% 29.62 in 10.0 mi WSW 4.6 mph - N/A   Mostly Cloudy
10:53 PM 26.1 °F 20.5 °F 23.0 °F 88% 29.62 in 10.0 mi West 4.6 mph - N/A   Clear
11:37 PM 28.4 °F 23.3 °F 24.8 °F 86% 29.63 in 10.0 mi West 4.6 mph - N/A   Mostly Cloudy
11:53 PM 28.0 °F 21.7 °F 25.0 °F 88% 29.63 in 10.0 mi West 5.8 mph - N/A   Mostly Cloudy